TimeCDT,TemperatureF,Dew PointF,Humidity,Sea Level PressureIn,VisibilityMPH,Wind Direction,Wind SpeedMPH,Gust SpeedMPH,PrecipitationIn,Events,Conditions,WindDirDegrees,DateUTC
12:15 AM,56.1,51.4,84,30.17,10.0,North,6.9,-,N/A,,Clear,10,2013-07-01 05:15:00
12:35 AM,57.6,50.9,78,30.17,10.0,North,6.9,-,N/A,,Clear,10,2013-07-01 05:35:00
12:55 AM,56.1,51.1,83,30.17,10.0,North,6.9,-,N/A,,Clear,10,2013-07-01 05:55:00
1:15 AM,56.3,51.6,84,30.18,10.0,North,5.8,-,N/A,,Clear,360,2013-07-01 06:15:00
1:35 AM,54.5,51.1,88,30.18,10.0,NNW,6.9,-,N/A,,Clear,340,2013-07-01 06:35:00
1:55 AM,54.1,51.1,89,30.18,10.0,NNW,6.9,-,N/A,,Clear,340,2013-07-01 06:55:00
2:15 AM,54.1,51.3,90,30.18,10.0,NNW,6.9,-,N/A,,Clear,330,2013-07-01 07:15:00
2:35 AM,54.1,51.3,90,30.18,10.0,North,8.1,-,N/A,,Clear,350,2013-07-01 07:35:00
2:55 AM,53.6,50.7,90,30.19,10.0,North,6.9,-,N/A,,Clear,350,2013-07-01 07:55:00
3:35 AM,52.0,50.0,93,30.19,10.0,NW,5.8,-,N/A,,Clear,320,2013-07-01 08:35:00
4:15 AM,53.6,50.0,88,30.19,10.0,North,8.1,-,N/A,,Clear,350,2013-07-01 09:15:00
4:35 AM,53.6,50.2,88,30.20,10.0,North,6.9,-,N/A,,Clear,360,2013-07-01 09:35:00
4:55 AM,53.1,50.0,89,30.20,10.0,North,6.9,-,N/A,,Clear,350,2013-07-01 09:55:00
5:15 AM,53.6,50.0,88,30.20,10.0,North,5.8,-,N/A,,Clear,350,2013-07-01 10:15:00
5:35 AM,52.9,49.8,89,30.20,10.0,North,6.9,-,N/A,,Clear,350,2013-07-01 10:35:00
5:55 AM,52.9,50.0,90,30.20,10.0,North,6.9,-,N/A,,Clear,360,2013-07-01 10:55:00
6:15 AM,52.3,49.5,90,30.21,10.0,NNW,6.9,-,N/A,,Clear,340,2013-07-01 11:15:00
6:35 AM,52.0,49.5,91,30.21,10.0,NNW,6.9,-,N/A,,Clear,340,2013-07-01 11:35:00
6:55 AM,52.9,50.2,91,30.22,10.0,NNW,6.9,-,N/A,,Clear,340,2013-07-01 11:55:00
7:15 AM,54.1,51.3,90,30.22,7.0,NNW,5.8,-,N/A,,Clear,340,2013-07-01 12:15:00
7:35 AM,56.1,52.7,88,30.22,7.0,NNW,5.8,-,N/A,,Clear,340,2013-07-01 12:35:00
7:55 AM,58.1,52.7,82,30.23,10.0,North,6.9,-,N/A,,Clear,350,2013-07-01 12:55:00
8:15 AM,59.7,53.4,80,30.24,10.0,North,5.8,-,N/A,,Clear,350,2013-07-01 13:15:00
8:35 AM,61.7,52.7,72,30.24,10.0,North,5.8,-,N/A,,Clear,360,2013-07-01 13:35:00
8:55 AM,63.5,52.2,67,30.24,10.0,North,4.6,-,N/A,,Clear,360,2013-07-01 13:55:00
9:15 AM,65.1,52.9,65,30.25,10.0,NNE,5.8,-,N/A,,Clear,20,2013-07-01 14:15:00
9:35 AM,67.3,53.4,61,30.25,10.0,NNE,5.8,-,N/A,,Clear,20,2013-07-01 14:35:00
9:55 AM,69.4,52.3,54,30.25,10.0,NE,4.6,-,N/A,,Clear,40,2013-07-01 14:55:00
10:15 AM,72.0,52.2,50,30.25,10.0,North,5.8,-,N/A,,Clear,10,2013-07-01 15:15:00
10:35 AM,72.9,49.1,43,30.25,10.0,NNE,6.9,-,N/A,,Clear,20,2013-07-01 15:35:00
10:55 AM,74.3,49.1,41,30.25,10.0,NE,8.1,-,N/A,,Clear,50,2013-07-01 15:55:00
11:15 AM,74.5,47.7,39,30.25,10.0,NNE,12.7,16.1,N/A,,Clear,20,2013-07-01 16:15:00
11:35 AM,74.7,45.9,36,30.25,10.0,NNE,10.4,16.1,N/A,,Clear,30,2013-07-01 16:35:00
11:55 AM,75.7,45.5,34,30.25,10.0,NE,9.2,-,N/A,,Clear,50,2013-07-01 16:55:00
12:15 PM,75.7,43.7,32,30.25,10.0,NE,13.8,-,N/A,,Clear,40,2013-07-01 17:15:00
12:35 PM,76.3,44.2,32,30.24,10.0,NE,9.2,16.1,N/A,,Clear,50,2013-07-01 17:35:00
12:55 PM,77.2,45.9,33,30.24,10.0,ENE,8.1,-,N/A,,Clear,60,2013-07-01 17:55:00
1:15 PM,77.2,45.1,32,30.23,10.0,North,8.1,17.3,N/A,,Clear,10,2013-07-01 18:15:00
1:35 PM,77.4,46.0,33,30.23,10.0,East,9.2,-,N/A,,Clear,80,2013-07-01 18:35:00
1:55 PM,78.6,46.9,33,30.23,10.0,NE,12.7,18.4,N/A,,Scattered Clouds,50,2013-07-01 18:55:00
2:15 PM,78.6,47.8,34,30.23,10.0,NE,11.5,18.4,N/A,,Scattered Clouds,40,2013-07-01 19:15:00
2:35 PM,78.8,46.0,31,30.22,10.0,NE,5.8,9.2,N/A,,Clear,40,2013-07-01 19:35:00
2:55 PM,79.2,47.8,33,30.21,10.0,NE,9.2,-,N/A,,Scattered Clouds,40,2013-07-01 19:55:00
3:15 PM,78.8,47.8,34,30.20,10.0,NNE,9.2,-,N/A,,Scattered Clouds,20,2013-07-01 20:15:00
3:35 PM,78.4,46.8,33,30.20,10.0,NE,10.4,17.3,N/A,,Scattered Clouds,40,2013-07-01 20:35:00
3:55 PM,77.5,47.5,35,30.20,10.0,NE,9.2,-,N/A,,Mostly Cloudy,50,2013-07-01 20:55:00
4:15 PM,78.3,47.7,34,30.20,10.0,NNE,8.1,-,N/A,,Scattered Clouds,20,2013-07-01 21:15:00
4:35 PM,79.3,47.3,32,30.19,10.0,NE,10.4,-,N/A,,Scattered Clouds,40,2013-07-01 21:35:00
4:55 PM,79.7,47.8,33,30.19,10.0,NE,13.8,17.3,N/A,,Scattered Clouds,40,2013-07-01 21:55:00
5:15 PM,79.7,47.7,32,30.19,10.0,ENE,12.7,16.1,N/A,,Scattered Clouds,60,2013-07-01 22:15:00
5:35 PM,79.3,45.3,30,30.19,10.0,NNE,9.2,16.1,N/A,,Scattered Clouds,20,2013-07-01 22:35:00
5:55 PM,78.6,46.4,32,30.19,10.0,ENE,10.4,-,N/A,,Scattered Clouds,60,2013-07-01 22:55:00
6:15 PM,78.4,46.6,32,30.18,10.0,NE,9.2,-,N/A,,Clear,50,2013-07-01 23:15:00
6:35 PM,78.3,46.6,33,30.18,10.0,NNE,8.1,-,N/A,,Clear,20,2013-07-01 23:35:00
6:55 PM,77.9,46.9,33,30.18,10.0,NE,8.1,-,N/A,,Clear,40,2013-07-01 23:55:00
7:15 PM,77.4,46.4,33,30.18,10.0,NE,6.9,-,N/A,,Clear,50,2013-07-02 00:15:00
7:35 PM,76.8,49.1,38,30.18,10.0,ENE,4.6,-,N/A,,Clear,60,2013-07-02 00:35:00
7:55 PM,75.6,51.4,43,30.18,10.0,NE,3.5,-,N/A,,Clear,50,2013-07-02 00:55:00
8:15 PM,74.3,53.8,49,30.18,10.0,Calm,Calm,-,N/A,,Clear,0,2013-07-02 01:15:00
8:35 PM,71.6,57.9,62,30.18,10.0,Calm,Calm,-,N/A,,Clear,0,2013-07-02 01:35:00
8:55 PM,69.3,58.6,69,30.18,10.0,NNW,3.5,-,N/A,,Clear,340,2013-07-02 01:55:00
9:15 PM,67.8,57.7,70,30.18,10.0,NNW,3.5,-,N/A,,Clear,340,2013-07-02 02:15:00
9:35 PM,66.7,57.2,71,30.18,10.0,NNW,5.8,-,N/A,,Clear,330,2013-07-02 02:35:00
9:55 PM,64.4,57.2,77,30.18,10.0,NNW,4.6,-,N/A,,Clear,330,2013-07-02 02:55:00
10:15 PM,61.9,57.0,84,30.18,10.0,NW,5.8,-,N/A,,Clear,320,2013-07-02 03:15:00
10:35 PM,61.3,56.7,85,30.18,10.0,NW,5.8,-,N/A,,Clear,320,2013-07-02 03:35:00
10:55 PM,60.4,55.6,84,30.18,10.0,NW,6.9,-,N/A,,Clear,320,2013-07-02 03:55:00
11:15 PM,60.1,55.0,83,30.18,10.0,NW,5.8,-,N/A,,Clear,310,2013-07-02 04:15:00
11:35 PM,59.0,54.9,86,30.18,10.0,NW,5.8,-,N/A,,Clear,310,2013-07-02 04:35:00
11:55 PM,58.3,54.7,88,30.19,10.0,NW,6.9,-,N/A,,Clear,320,2013-07-02 04:55:00